Regional Weather Roundup
Issued by NWS Midland/Odessa, TX

Skip options and go directly to product.
Home | Oldest Version | Next Version | Current Version | All | Text Only | Save Text | Print | Product List | Glossary On

Skip product version selection by date and time.   
241
ASUS44 KMAF 151602
RWRMAF
MIDLAND AREA WEATHER ROUNDUP
NATIONAL WEATHER SERVICE MIDLAND TX
1100 AM CDT TUE APR 15 2014

...IN SOUTHWEST TEXAS AND SOUTHEAST NEW MEXICO...

CITY           SKY/WX    TMP DP  RH WIND       PRES   REMARKS
ALPINE         SUNNY     47  13  25 S7        30.35F
ANDREWS        FAIR      46  15  27 S7        30.31F
ARTESIA        SUNNY     48  16  27 S23       30.26F
BIG SPRING     SUNNY     48  16  27 SE7       30.36S
CARLSBAD       SUNNY     50  15  24 S18G26    30.28S
DRYDEN           N/A     53  15  22 SE8       30.34F
FORT STOCKTON  SUNNY     50  15  24 SE15      30.32F
GUAD PASS      SUNNY     44  15  31 VRB3      30.29S
HOBBS          SUNNY     46  12  25 S12G18    30.29F
MARFA          SUNNY     43  16  33 S8        30.32S WCI  38
MIDLAND AIRPK  SUNNY     49  15  26 S7        30.33S
MIDLAND INTL   SUNNY     49  16  26 SE7       30.32F
ODESSA         SUNNY     50  13  22 SE12      30.32F
PECOS          SUNNY     52  17  25 SE10      30.32F
PRESIDIO       FAIR      52  17  25 E6        30.31F
SEMINOLE       SUNNY     48  16  28 S9        30.31S
SNYDER         SUNNY     47  16  29 S9        30.33S
WINK           SUNNY     49  15  25 SE12      30.31F
$$
...OTHER STATIONS IN TEXAS...

CITY           SKY/WX    TMP DP  RH WIND       PRES   REMARKS
ABILENE        SUNNY     51  13  21 CALM      30.33F
AMARILLO       SUNNY     50  19  29 SW20G25   30.20F
AUSTIN         SUNNY     55  18  23 N16       30.36S
BROWNSVILLE    MOSUNNY   59  37  44 N15G25    30.36R
CORPUS CHRISTI MOSUNNY   59  24  26 N16       30.37S
DALLAS FTW     SUNNY     55  20  25 W12       30.33S
DEL RIO        SUNNY     56  16  20 SE8       30.39F
EL PASO        SUNNY     49  15  25 SE8       30.25F
HOUSTON INT    SUNNY     55  24  30 N17G25    30.31S
LUBBOCK        SUNNY     49  16  26 S13       30.26F
SAN ANGELO     SUNNY     51  15  23 CALM      30.35S
SAN ANTONIO    SUNNY     57  17  21 N12G17    30.38S
WACO           SUNNY     54  27  35 VRB3      30.36S
WICHITA FALLS  NOT AVBL
$$
...OTHER LOCATIONS IN NEW MEXICO...

CITY           SKY/WX    TMP DP  RH WIND       PRES   REMARKS
ALAMAGORDO     SUNNY     46  16  29 S9        30.26F
ALBUQUERQUE    MOSUNNY   45  16  31 S8        30.22F
CANNON AFB     SUNNY     49  15  26 SW24      30.20F
CLOVIS         SUNNY     48  19  32 SW23      30.22F
HOLLOMAN AFB   SUNNY     48  17  28 S8        30.25F
ROSWELL        SUNNY     48  17  29 S20       30.24F
RUIDOSO        SUNNY     43  18  36 NE3       30.22F
SANTA FE       SUNNY     46  12  25 W13       30.19F
TRUTH OR CONSE SUNNY     49  15  25 S10       30.22F
TUCUMCARI      SUNNY     49  20  31 SW25G32   30.14F
$$

USA.gov is the U.S. government's official web portal to all federal, state and local government web resources and services.